Regional Weather Roundup
Issued by NWS

Home | Current Version | Previous Version | Graphics & Text | Print | Product List | Glossary On
Versions: 1 2 3 4 5 6 7 8 9 10 11 12 13 14 15 16 17 18 19 20 21 22 23 24 25 26 27 28 29 30 31 32 33 34 35 36 37 38 39 40 41 42 43 44 45 46 47 48 49 50
000
ASUS44 KMEG 241800
RWRTN
TENNESSEE HOURLY STATE WEATHER ROUNDUP
NATIONAL WEATHER SERVICE MEMPHIS TN
100 PM CDT FRI MAR 24 2017

TNZ002-004-019-021-049-052-054-088>092-241900-
WEST TENNESSEE

CITY           SKY/WX    TMP DP  RH WIND       PRES   REMARKS
MEMPHIS INTL   CLOUDY    74  58  57 S18G29    30.16F
NWS MEMPHIS      N/A     74 N/A N/A MISG        N/A
JACKSON        CLOUDY    71  56  58 S14G21    30.21F
DYERSBURG      CLOUDY    71  59  65 S10G24    30.18F
PARIS          CLOUDY    70  55  60 S20       30.21F
$$

TNZ008-025-027-028-033-062-065-066-241900-
NORTH MIDDLE TENNESSEE

CITY           SKY/WX    TMP DP  RH WIND       PRES   REMARKS
NASHVILLE      PTSUNNY   74  53  48 S18G25    30.25F
CLARKSVILLE    CLOUDY    74  54  49 S20G28    30.21F
CROSSVILLE     SUNNY     65  47  52 S13G22    30.35F
$$

TNZ061-075-076-078-094-096-097-241900-
SOUTH MIDDLE TENNESSEE

CITY           SKY/WX    TMP DP  RH WIND       PRES   REMARKS
TULLAHOMA      MOSUNNY   70  48  46 S13       30.30F
WINCHESTER     MOSUNNY   70  52  52 S13       30.31F
COLUMBIA       MOSUNNY   73  55  53 S17       30.24F
SHELBYVILLE    MOSUNNY   72  55  56 S20       30.29F
$$

TNZ017-018-042-046-047-241900-
NORTHEAST TENNESSEE

CITY           SKY/WX    TMP DP  RH WIND       PRES   REMARKS
TRI CITIES     PTSUNNY   70  46  42 W8        30.35F
$$

TNZ012-013-036-069-073-074-241900-
CENTRAL EAST TENNESSEE

CITY           SKY/WX    TMP DP  RH WIND       PRES   REMARKS
KNOXVILLE      PTSUNNY   71  47  42 SW8       30.34F
OAK RIDGE      MOSUNNY   70  45  40 S10       30.35F
GATLINBURG     MOSUNNY   70  43  37 CALM      30.33F
$$

TNZ083-085-099-241900-
SOUTHEAST TENNESSEE

CITY           SKY/WX    TMP DP  RH WIND       PRES   REMARKS
CHATTANOOGA    PTSUNNY   68  48  48 S12       30.36F
$$

SKY/WX REPORTED AS FAIR MEANS FEW OR NO CLOUDS BELOW
12 THOUSAND FEET.




USA.gov is the U.S. government's official web portal to all federal, state and local government web resources and services.